Weather History for Cody, WY

Change the Weather History Date:

Thursday, October 10, 2013

  Actual Average Record
Temperature  
Mean Temperature 42 °F -  
Max Temperature 51 °F 64 °F 83 °F (1934)
Min Temperature 33 °F 35 °F 8 °F (1919)
Degree Days  
Heating Degree Days 23    
Moisture  
Dew Point 38 °F    
Average Humidity 83    
Maximum Humidity 100    
Minimum Humidity 58    
Precipitation  
Precipitation 0.01 in - - ()
Sea Level Pressure  
Sea Level Pressure 29.76 in    
Wind  
Wind Speed 6 mph (NNE)    
Max Wind Speed 16 mph    
Max Gust Speed 21 mph    
Visibility 10 miles    
Events      
Averages and records for this station are not official NWS values.
T = Trace of Precipitation, MM = Missing Value Source: NWS Daily Summary

Daily Weather History Graph

Daily Weather History Graph

Search for Another Location

Airport:

Trip Planner

Search our weather history database for the weather conditions in past years. The results will help you decide how hot, cold, wet, or windy it might be!

Date:

Astronomy

Oct. 10, 2013 Rise Set
Actual Time 7:25 AM MDT 6:39 PM MDT
Civil Twilight 6:56 AM MDT 7:09 PM MDT
Nautical Twilight 6:22 AM MDT 7:42 PM MDT
Astronomical Twilight 5:48 AM MDT 8:16 PM MDT
Moon 1:28 PM MDT (10/10) 11:12 PM MDT (10/10)
Length of Visible Light 12h 12m
Length of Day
11h 14m
Waxing Crescent, 36% of the Moon is Illuminated
Oct 10
Waxing Crescent
Oct 11
First Quarter
Oct 18
Full
Oct 26
Last Quarter
Nov 3
New

Hourly Weather History & Observations

Time (MDT) Temp. Windchill Dew Point Humidity Pressure Visibility Wind Dir Wind Speed Gust Speed Precip Events Conditions
12:15 AM 41.0 °F 34.7 °F 35.6 °F 81% 29.89 in 10.0 mi SW 10.4 mph - N/A   Partly Cloudy
12:35 AM 42.8 °F 38.0 °F 35.6 °F 76% 29.89 in 10.0 mi SW 8.1 mph - N/A   Clear
12:55 AM 41.0 °F 38.0 °F 35.6 °F 81% 29.88 in 10.0 mi SSE 4.6 mph - N/A   Clear
1:15 AM 41.0 °F 38.0 °F 35.6 °F 81% 29.88 in 10.0 mi South 4.6 mph - N/A   Clear
1:35 AM 39.2 °F 34.2 °F 35.6 °F 87% 29.88 in 10.0 mi SSW 6.9 mph - N/A   Clear
1:55 AM 39.2 °F 35.0 °F 35.6 °F 87% 29.87 in 10.0 mi SSW 5.8 mph - N/A   Clear
2:15 AM 39.2 °F 35.0 °F 35.6 °F 87% 29.86 in 10.0 mi SSE 5.8 mph - N/A   Clear
2:36 AM 39.2 °F 34.2 °F 33.8 °F 81% 29.86 in 10.0 mi South 6.9 mph - N/A   Clear
2:55 AM 39.2 °F 35.0 °F 33.8 °F 81% 29.85 in 10.0 mi South 5.8 mph - N/A   Clear
3:15 AM 35.6 °F - 32.0 °F 87% 29.84 in 10.0 mi Calm Calm - N/A   Clear
3:35 AM 35.6 °F 30.7 °F 32.0 °F 87% 29.84 in 10.0 mi South 5.8 mph - N/A   Clear
3:55 AM 33.8 °F 29.6 °F 33.8 °F 100% 29.84 in 10.0 mi SSE 4.6 mph - N/A   Clear
4:15 AM 33.8 °F - 30.2 °F 87% 29.83 in 10.0 mi Calm Calm - N/A   Clear
4:35 AM 33.8 °F - 32.0 °F 93% 29.83 in 10.0 mi Calm Calm - N/A   Clear
4:55 AM 33.8 °F 28.6 °F 32.0 °F 93% 29.83 in 10.0 mi West 5.8 mph - N/A   Clear
5:15 AM 33.8 °F - 32.0 °F 93% 29.82 in 10.0 mi Calm Calm - N/A   Clear
5:35 AM 33.8 °F 30.8 °F 32.0 °F 93% 29.81 in 10.0 mi SSW 3.5 mph - N/A   Clear
5:55 AM 35.6 °F - 33.8 °F 93% 29.81 in 10.0 mi Calm Calm - N/A   Clear
6:15 AM 35.6 °F 32.8 °F 32.0 °F 87% 29.81 in 10.0 mi South 3.5 mph - N/A   Clear
6:35 AM 37.4 °F 29.8 °F 33.8 °F 87% 29.80 in 10.0 mi South 11.5 mph - N/A   Partly Cloudy
6:55 AM 39.2 °F 33.0 °F 33.8 °F 81% 29.80 in 10.0 mi SSW 9.2 mph - N/A   Clear
7:15 AM 33.8 °F - 30.2 °F 87% 29.78 in 10.0 mi Calm Calm - N/A   Mostly Cloudy
7:35 AM 33.8 °F 30.8 °F 32.0 °F 93% 29.78 in 10.0 mi SSW 3.5 mph - N/A   Scattered Clouds
7:55 AM 39.2 °F 33.0 °F 33.8 °F 81% 29.78 in 10.0 mi SSW 9.2 mph - N/A   Clear
8:15 AM 39.2 °F 33.6 °F 33.8 °F 81% 29.78 in 10.0 mi SSW 8.1 mph - N/A   Clear
8:35 AM 41.0 °F 39.0 °F 35.6 °F 81% 29.77 in 10.0 mi NW 3.5 mph - N/A   Clear
8:55 AM 37.4 °F - 33.8 °F 87% 29.77 in 10.0 mi Calm Calm - N/A   Clear
9:15 AM 42.8 °F 39.3 °F 35.6 °F 76% 29.77 in 10.0 mi South 5.8 mph - N/A   Partly Cloudy
9:35 AM 44.6 °F 41.4 °F 35.6 °F 71% 29.76 in 10.0 mi WSW 5.8 mph - N/A   Mostly Cloudy
9:55 AM 42.8 °F 41.1 °F 37.4 °F 81% 29.75 in 10.0 mi NW 3.5 mph - N/A   Scattered Clouds
10:15 AM 42.8 °F - 35.6 °F 76% 29.74 in 10.0 mi Calm Calm - N/A   Partly Cloudy
10:35 AM 42.8 °F - 39.2 °F 87% 29.74 in 10.0 mi Calm Calm - N/A   Partly Cloudy
10:55 AM 44.6 °F - 37.4 °F 76% 29.74 in 10.0 mi Calm Calm - N/A   Clear
11:15 AM 46.4 °F - 35.6 °F 66% 29.73 in 10.0 mi Calm Calm - N/A   Clear
11:35 AM 46.4 °F 45.2 °F 37.4 °F 71% 29.73 in 10.0 mi NNE 3.5 mph - N/A   Partly Cloudy
11:55 AM 46.4 °F 45.2 °F 37.4 °F 71% 29.74 in 10.0 mi East 3.5 mph - N/A   Mostly Cloudy
12:15 PM 48.2 °F - 37.4 °F 66% 29.73 in 10.0 mi Calm Calm - N/A   Scattered Clouds
12:55 PM 51.8 °F - 37.4 °F 58% 29.72 in 10.0 mi North 3.5 mph - N/A   Partly Cloudy
1:15 PM 50.0 °F - 37.4 °F 62% 29.71 in 10.0 mi NE 4.6 mph - N/A   Partly Cloudy
1:35 PM 48.2 °F - 39.2 °F 71% 29.71 in 10.0 mi NNE 8.1 mph - N/A   Partly Cloudy
1:55 PM 48.2 °F - 39.2 °F 71% 29.71 in 10.0 mi NNE 10.4 mph - N/A   Mostly Cloudy
2:15 PM 48.2 °F - 39.2 °F 71% 29.71 in 10.0 mi NNE 5.8 mph - N/A   Overcast
2:55 PM 48.2 °F - 39.2 °F 71% 29.70 in 10.0 mi North 8.1 mph - N/A   Partly Cloudy
3:15 PM 48.2 °F - 41.0 °F 76% 29.70 in 10.0 mi NNE 8.1 mph - N/A   Mostly Cloudy
3:35 PM 48.2 °F - 39.2 °F 71% 29.70 in 10.0 mi NNE 8.1 mph - N/A   Mostly Cloudy
3:55 PM 46.4 °F 42.9 °F 41.0 °F 81% 29.70 in 10.0 mi NNE 6.9 mph - N/A   Mostly Cloudy
4:15 PM 46.4 °F 42.4 °F 41.0 °F 81% 29.69 in 10.0 mi North 8.1 mph - N/A   Overcast
4:55 PM 46.4 °F 41.9 °F 42.8 °F 87% 29.70 in 10.0 mi NE 9.2 mph - N/A   Overcast
5:15 PM 46.4 °F 42.4 °F 41.0 °F 81% 29.70 in 10.0 mi NE 8.1 mph - N/A   Overcast
5:35 PM 46.4 °F 43.5 °F 42.8 °F 87% 29.70 in 10.0 mi NE 5.8 mph - N/A   Overcast
5:55 PM 46.4 °F 44.3 °F 42.8 °F 87% 29.70 in 10.0 mi North 4.6 mph - N/A   Overcast
6:15 PM 46.4 °F 43.5 °F 42.8 °F 87% 29.70 in 10.0 mi NE 5.8 mph - N/A   Overcast
6:35 PM 44.6 °F 40.7 °F 41.0 °F 87% 29.70 in 10.0 mi NE 6.9 mph - N/A   Overcast
6:55 PM 44.6 °F 43.1 °F 42.8 °F 93% 29.71 in 10.0 mi North 3.5 mph - N/A   Overcast
7:15 PM 44.6 °F 42.2 °F 42.8 °F 93% 29.72 in 10.0 mi North 4.6 mph - N/A   Overcast
7:35 PM 44.6 °F 41.4 °F 42.8 °F 93% 29.73 in 10.0 mi NE 5.8 mph - N/A   Overcast
7:55 PM 44.6 °F 43.1 °F 42.8 °F 93% 29.73 in 10.0 mi NNW 3.5 mph - 0.01 in   Overcast
8:15 PM 44.6 °F 42.2 °F 42.8 °F 93% 29.73 in 10.0 mi NE 4.6 mph - N/A   Overcast
8:35 PM 44.6 °F - 42.8 °F 93% 29.73 in 10.0 mi Calm Calm - N/A   Overcast
8:55 PM 44.6 °F - 42.8 °F 93% 29.72 in 10.0 mi Calm Calm - N/A   Overcast
9:15 PM 44.6 °F - 42.8 °F 93% 29.72 in 10.0 mi Calm Calm - N/A   Overcast
9:35 PM 44.6 °F - 41.0 °F 87% 29.73 in 10.0 mi Calm Calm - N/A   Overcast
9:55 PM 44.6 °F - 42.8 °F 93% 29.74 in 10.0 mi Calm Calm - N/A   Overcast
10:15 PM 44.6 °F 43.1 °F 42.8 °F 93% 29.74 in 10.0 mi NNW 3.5 mph - N/A   Overcast
10:35 PM 44.6 °F 39.2 °F 42.8 °F 93% 29.74 in 10.0 mi NNW 10.4 mph 17.3 mph N/A   Overcast
10:55 PM 44.6 °F 38.8 °F 41.0 °F 87% 29.73 in 10.0 mi North 11.5 mph - N/A   Overcast
11:15 PM 44.6 °F 37.8 °F 41.0 °F 87% 29.73 in 10.0 mi North 15.0 mph 18.4 mph N/A   Overcast
11:35 PM 44.6 °F 38.4 °F 41.0 °F 87% 29.73 in 10.0 mi North 12.7 mph 17.3 mph N/A   Overcast
11:55 PM 44.6 °F 37.4 °F 41.0 °F 87% 29.74 in 10.0 mi North 16.1 mph 20.7 mph N/A   Overcast